Torna al catalogo

LEMUR 2 MYNAMEISJEFF

AttivoScienzaSSO
NORAD 62712·PAYLOAD·🇺🇸 United States

Lanciato Jan 14, 2025 da Vandenberg Space Force Base

Loading…

Prossimi Passaggi (prossime 24 ore)

TLE

AggiornatoSource: Space-Track

Epoca: Sep 14, 2026, 16:24 UTC

1 62712U 25009DH  26257.68347487  .00006120  00000-0  43535-3 0  9995
2 62712  97.7249 340.7260 0001640 195.1520 164.9657 15.05018074 91081

Traccia LEMUR 2 MYNAMEISJEFF in tempo reale con AllMySat

Download on the App Store